STARLINK-5581 (55373 NORAD) Tracking and Keplerian Element Data

This shows tracking and keplerian element data for the satellite.

Feedback or suggestion? Click here.




ElementValue
Catalog55373
NameSTARLINK-5581
Epoch Orbit1592
Epoch Day127.18135037
Epoch Year2023
RAAN190.6415
Inclination43.0019
Eccentricity0.0001382
Argument of Perigee277.9238
Mean Anonmoly82.1448
Mean Motion15.02544085
Decay Rate5.08E-06
L11 55373U 23013AU 23127.18135037 .00000508 00000+0 52685-4 0 9997
L22 55373 43.0019 190.6415 0001382 277.9238 82.1448 15.02544085 15928



Live tracking and technical data element details for STARLINK-5581 (NORAD 55373). STARLINK-5581 can be tracked NOW for your location showing map with azimuth and elevation plus other details from your city location.







IsCatalogInMostPopularTable: catalog: 55373, numindb: -1

Insert: records affected: 1


GetName: 55373 STARLINK-5581

Hit Count: inserted at: Mon, 05 Jun 2023 21:15:20 GMT